N623AZ MMLM-KTOA

Flight info

Callsign N623AZ
Flight time 1h 57m
Altitude 17000
Route MMLM KTOA
Aircraft C25C/M-VGD/A

Departure

Time 2026-05-09 10:49
Airport Valle del Fuerte International Airport (MMLM)

Arrival

Time 2026-05-09 12:46
Airport Zamperini Field (KTOA)
Time Latitude Longitude Altitude Speed Heading
2026-05-09 10:30 25.68917 -109.08547 18 ft 0 kts 11°
2026-05-09 10:44 25.68918 -109.08547 18 ft 1 kts 17°
2026-05-09 10:44 25.68914 -109.08526 18 ft 8 kts 172°
2026-05-09 10:44 25.68874 -109.08492 18 ft 10 kts 99°
2026-05-09 10:44 25.68856 -109.08369 18 ft 22 kts 96°
2026-05-09 10:45 25.68796 -109.08218 17 ft 23 kts 185°
2026-05-09 10:46 25.68443 -109.07443 21 ft 31 kts 100°
2026-05-09 10:46 25.68426 -109.07233 17 ft 21 kts 74°
2026-05-09 10:46 25.68421 -109.07153 17 ft 0 kts 193°
2026-05-09 10:48 25.68409 -109.07165 17 ft 7 kts 241°
2026-05-09 10:48 25.68417 -109.07284 17 ft 37 kts 280°
2026-05-09 10:48 25.68524 -109.07945 17 ft 136 kts 280°
2026-05-09 10:48 25.68736 -109.09113 529 ft 163 kts 283°
2026-05-09 10:49 25.68997 -109.10407 1451 ft 175 kts 284°
2026-05-09 10:49 25.69263 -109.11732 2572 ft 175 kts 286°
2026-05-09 10:49 25.69570 -109.13032 3659 ft 176 kts 288°
2026-05-09 10:49 25.69871 -109.14406 4541 ft 190 kts 283°
2026-05-09 10:50 25.70089 -109.15856 5608 ft 189 kts 279°
2026-05-09 10:50 25.70182 -109.17302 6651 ft 191 kts 275°
2026-05-09 10:50 25.70314 -109.18833 7360 ft 208 kts 277°
2026-05-09 10:50 25.70482 -109.20438 8330 ft 207 kts 278°
2026-05-09 10:51 25.70707 -109.21995 9387 ft 206 kts 282°
2026-05-09 10:51 25.71001 -109.23619 10063 ft 224 kts 283°
2026-05-09 10:51 25.71320 -109.25379 10643 ft 245 kts 276°
2026-05-09 10:51 25.71378 -109.27317 11179 ft 265 kts 273°
2026-05-09 10:52 25.71566 -109.29448 11747 ft 283 kts 276°
2026-05-09 10:52 25.71789 -109.31643 12313 ft 298 kts 276°
2026-05-09 10:52 25.71994 -109.33941 12893 ft 299 kts 275°
2026-05-09 10:52 25.72317 -109.36221 13475 ft 300 kts 279°
2026-05-09 10:53 25.72607 -109.38526 14010 ft 306 kts 276°
2026-05-09 10:53 25.72891 -109.40909 14529 ft 317 kts 277°
2026-05-09 10:53 25.73228 -109.43367 15062 ft 327 kts 278°
2026-05-09 10:53 25.73588 -109.45889 15596 ft 336 kts 278°
2026-05-09 10:54 25.73937 -109.48475 16144 ft 343 kts 277°
2026-05-09 10:54 25.74294 -109.51114 16699 ft 348 kts 277°
2026-05-09 10:54 25.74655 -109.53814 16984 ft 363 kts 277°
2026-05-09 10:54 25.75041 -109.56640 17009 ft 376 kts 277°
2026-05-09 10:55 25.75464 -109.59504 17010 ft 375 kts 282°
2026-05-09 10:55 25.76523 -109.62121 17001 ft 372 kts 301°
2026-05-09 10:55 25.78235 -109.64232 16995 ft 368 kts 318°
2026-05-09 10:55 25.80174 -109.66066 16997 ft 364 kts 318°
2026-05-09 10:56 25.82100 -109.67866 16999 ft 360 kts 319°
2026-05-09 10:56 25.84012 -109.69646 16998 ft 358 kts 318°
2026-05-09 10:56 25.85903 -109.71425 16995 ft 355 kts 318°
2026-05-09 10:56 25.87777 -109.73201 16996 ft 353 kts 318°
2026-05-09 10:57 25.89651 -109.74962 16996 ft 352 kts 318°
2026-05-09 10:57 25.91516 -109.76721 16991 ft 351 kts 318°
2026-05-09 10:57 25.93374 -109.78468 16993 ft 350 kts 318°
2026-05-09 10:57 25.95227 -109.80220 16995 ft 349 kts 318°
2026-05-09 10:58 25.97075 -109.81962 16991 ft 348 kts 318°
2026-05-09 10:58 25.98921 -109.83704 16992 ft 348 kts 318°
2026-05-09 10:58 26.00738 -109.85421 16992 ft 347 kts 318°
2026-05-09 10:58 26.02604 -109.87181 16992 ft 347 kts 318°
2026-05-09 10:59 26.04418 -109.88898 16992 ft 347 kts 318°
2026-05-09 10:59 26.06256 -109.90633 16991 ft 347 kts 318°
2026-05-09 10:59 26.08090 -109.92372 16994 ft 346 kts 318°
2026-05-09 10:59 26.09925 -109.94104 16990 ft 346 kts 318°
2026-05-09 11:00 26.11759 -109.95844 16994 ft 346 kts 319°
2026-05-09 11:00 26.13592 -109.97576 16995 ft 346 kts 318°
2026-05-09 11:00 26.15423 -109.99314 16992 ft 346 kts 319°
2026-05-09 11:00 26.17254 -110.01049 16993 ft 346 kts 318°
2026-05-09 11:01 26.19084 -110.02784 16998 ft 346 kts 319°
2026-05-09 11:01 26.20913 -110.04521 16994 ft 346 kts 318°
2026-05-09 11:01 26.22743 -110.06254 16996 ft 346 kts 319°
2026-05-09 11:01 26.24572 -110.07995 16996 ft 346 kts 319°
2026-05-09 11:02 26.26403 -110.09730 16997 ft 346 kts 319°
2026-05-09 11:02 26.28228 -110.11469 16992 ft 346 kts 319°
2026-05-09 11:02 26.30059 -110.13206 16998 ft 345 kts 319°
2026-05-09 11:02 26.31884 -110.14945 16997 ft 345 kts 319°
2026-05-09 11:03 26.33715 -110.16685 16999 ft 345 kts 318°
2026-05-09 11:03 26.35540 -110.18423 17000 ft 346 kts 319°
2026-05-09 11:03 26.37374 -110.20154 17002 ft 346 kts 319°
2026-05-09 11:03 26.39223 -110.21871 17003 ft 346 kts 319°
2026-05-09 11:04 26.41081 -110.23578 17003 ft 346 kts 320°
2026-05-09 11:04 26.42916 -110.25245 17318 ft 336 kts 319°
2026-05-09 11:04 26.44623 -110.26999 17438 ft 334 kts 315°
2026-05-09 11:04 26.46329 -110.28770 17447 ft 336 kts 318°
2026-05-09 11:05 26.48121 -110.30456 17415 ft 339 kts 320°
2026-05-09 11:05 26.49945 -110.32151 17308 ft 343 kts 319°
2026-05-09 11:05 26.51771 -110.33892 17188 ft 347 kts 318°
2026-05-09 11:05 26.53605 -110.35663 17065 ft 351 kts 319°
2026-05-09 11:06 26.55457 -110.37437 17045 ft 350 kts 319°
2026-05-09 11:06 26.57283 -110.39181 17033 ft 350 kts 319°
2026-05-09 11:06 26.59129 -110.40945 17023 ft 349 kts 319°
2026-05-09 11:06 26.60973 -110.42712 17008 ft 349 kts 319°
2026-05-09 11:07 26.62817 -110.44482 17009 ft 349 kts 319°
2026-05-09 11:07 26.64658 -110.46244 17008 ft 348 kts 319°
2026-05-09 11:07 26.66493 -110.48006 17008 ft 348 kts 319°
2026-05-09 11:07 26.68331 -110.49766 17010 ft 348 kts 319°
2026-05-09 11:08 26.70163 -110.51529 17006 ft 347 kts 319°
2026-05-09 11:08 26.71998 -110.53287 17007 ft 347 kts 319°
2026-05-09 11:08 26.73828 -110.55049 17010 ft 347 kts 319°
2026-05-09 11:08 26.75661 -110.56807 17009 ft 347 kts 319°
2026-05-09 11:09 26.77491 -110.58569 17006 ft 347 kts 319°
2026-05-09 11:09 26.79320 -110.60328 17008 ft 347 kts 319°
2026-05-09 11:09 26.81151 -110.62089 17008 ft 347 kts 319°
2026-05-09 11:09 26.82981 -110.63853 17008 ft 347 kts 319°
2026-05-09 11:10 26.84813 -110.65615 17006 ft 347 kts 319°
2026-05-09 11:10 26.86642 -110.67382 17005 ft 347 kts 319°
2026-05-09 11:10 26.88475 -110.69144 17005 ft 347 kts 319°
2026-05-09 11:10 26.90302 -110.70911 17007 ft 347 kts 319°
2026-05-09 11:11 26.92136 -110.72677 17004 ft 347 kts 319°
2026-05-09 11:11 26.93965 -110.74446 17006 ft 347 kts 319°
2026-05-09 11:11 26.95179 -110.75614 17006 ft 347 kts 319°
2026-05-09 11:11 26.97653 -110.78007 17009 ft 357 kts 319°
2026-05-09 11:12 26.98910 -110.79221 17010 ft 363 kts 319°
2026-05-09 11:12 27.00846 -110.81095 17012 ft 372 kts 319°
2026-05-09 11:12 27.02822 -110.83005 17011 ft 378 kts 319°
2026-05-09 11:12 27.04829 -110.84948 17009 ft 384 kts 319°
2026-05-09 11:13 27.06860 -110.86917 17010 ft 388 kts 319°
2026-05-09 11:13 27.08917 -110.88907 17007 ft 392 kts 319°
2026-05-09 11:13 27.10990 -110.90919 17005 ft 395 kts 319°
2026-05-09 11:13 27.13081 -110.92944 17006 ft 398 kts 319°
2026-05-09 11:14 27.15178 -110.94983 17004 ft 400 kts 319°
2026-05-09 11:14 27.17291 -110.97030 17006 ft 402 kts 319°
2026-05-09 11:14 27.19399 -110.99081 17006 ft 400 kts 319°
2026-05-09 11:14 27.21500 -111.01121 17006 ft 398 kts 319°
2026-05-09 11:15 27.23583 -111.03148 17008 ft 396 kts 319°
2026-05-09 11:15 27.25661 -111.05169 17006 ft 394 kts 319°
2026-05-09 11:15 27.27729 -111.07182 17005 ft 393 kts 319°
2026-05-09 11:15 27.29793 -111.09193 17004 ft 392 kts 319°
2026-05-09 11:16 27.31853 -111.11197 17000 ft 391 kts 319°
2026-05-09 11:16 27.33905 -111.13202 16999 ft 390 kts 319°
2026-05-09 11:16 27.35958 -111.15200 16997 ft 390 kts 319°
2026-05-09 11:16 27.38000 -111.17197 16996 ft 389 kts 319°
2026-05-09 11:17 27.40047 -111.19191 17001 ft 389 kts 319°
2026-05-09 11:17 27.42084 -111.21185 16998 ft 388 kts 319°
2026-05-09 11:17 27.44125 -111.23178 16998 ft 388 kts 319°
2026-05-09 11:17 27.46163 -111.25171 16999 ft 388 kts 319°
2026-05-09 11:18 27.48202 -111.27166 16999 ft 388 kts 319°
2026-05-09 11:18 27.50238 -111.29157 16999 ft 388 kts 319°
2026-05-09 11:18 27.52271 -111.31151 16998 ft 388 kts 319°
2026-05-09 11:18 27.54306 -111.33142 16998 ft 387 kts 319°
2026-05-09 11:19 27.56309 -111.35110 16998 ft 387 kts 319°
2026-05-09 11:19 27.58342 -111.37100 16996 ft 387 kts 319°
2026-05-09 11:19 27.60372 -111.39095 16997 ft 387 kts 319°
2026-05-09 11:19 27.62407 -111.41091 16997 ft 387 kts 319°
2026-05-09 11:20 27.64437 -111.43086 16996 ft 387 kts 319°
2026-05-09 11:20 27.66467 -111.45082 16997 ft 387 kts 319°
2026-05-09 11:20 27.68500 -111.47079 16996 ft 387 kts 319°
2026-05-09 11:20 27.70527 -111.49076 16997 ft 387 kts 319°
2026-05-09 11:21 27.72559 -111.51074 16997 ft 387 kts 319°
2026-05-09 11:21 27.74586 -111.53073 16996 ft 387 kts 319°
2026-05-09 11:21 27.76615 -111.55069 16997 ft 387 kts 319°
2026-05-09 11:21 27.78641 -111.57069 16996 ft 387 kts 319°
2026-05-09 11:22 27.80667 -111.59065 16998 ft 387 kts 319°
2026-05-09 11:22 27.82691 -111.61065 16998 ft 387 kts 319°
2026-05-09 11:22 27.84715 -111.63063 16995 ft 386 kts 319°
2026-05-09 11:22 27.86740 -111.65062 16997 ft 386 kts 319°
2026-05-09 11:23 27.88763 -111.67065 16999 ft 386 kts 319°
2026-05-09 11:23 27.90787 -111.69063 16997 ft 386 kts 319°
2026-05-09 11:23 27.92809 -111.71066 16997 ft 386 kts 319°
2026-05-09 11:23 27.94831 -111.73064 16997 ft 386 kts 319°
2026-05-09 11:24 27.96850 -111.75069 16998 ft 386 kts 319°
2026-05-09 11:24 27.98876 -111.77073 16997 ft 386 kts 319°
2026-05-09 11:24 28.00894 -111.79075 16997 ft 386 kts 319°
2026-05-09 11:24 28.02914 -111.81079 16997 ft 386 kts 319°
2026-05-09 11:25 28.04935 -111.83084 16996 ft 386 kts 319°
2026-05-09 11:25 28.06950 -111.85088 16996 ft 386 kts 319°
2026-05-09 11:25 28.08968 -111.87089 16996 ft 386 kts 319°
2026-05-09 11:25 28.10984 -111.89096 16997 ft 386 kts 319°
2026-05-09 11:26 28.13000 -111.91098 16997 ft 385 kts 319°
2026-05-09 11:26 28.15012 -111.93104 16996 ft 385 kts 319°
2026-05-09 11:26 28.17027 -111.95108 16995 ft 385 kts 319°
2026-05-09 11:26 28.19013 -111.97087 16995 ft 385 kts 319°
2026-05-09 11:27 28.21050 -111.99118 16994 ft 385 kts 319°
2026-05-09 11:27 28.23064 -112.01124 16994 ft 385 kts 319°
2026-05-09 11:27 28.25072 -112.03130 16994 ft 385 kts 319°
2026-05-09 11:27 28.27084 -112.05135 16994 ft 385 kts 319°
2026-05-09 11:28 28.29092 -112.07144 16996 ft 385 kts 319°
2026-05-09 11:28 28.31102 -112.09150 16996 ft 385 kts 319°
2026-05-09 11:28 28.33110 -112.11160 16993 ft 385 kts 319°
2026-05-09 11:28 28.35117 -112.13166 16994 ft 385 kts 319°
2026-05-09 11:29 28.37124 -112.15175 16995 ft 385 kts 319°
2026-05-09 11:29 28.39131 -112.17185 16994 ft 384 kts 319°
2026-05-09 11:29 28.41138 -112.19194 16995 ft 384 kts 319°
2026-05-09 11:29 28.43113 -112.21178 16996 ft 384 kts 319°
2026-05-09 11:30 28.45117 -112.23184 16994 ft 384 kts 319°
2026-05-09 11:30 28.47122 -112.25198 16992 ft 384 kts 319°
2026-05-09 11:30 28.49122 -112.27205 16995 ft 384 kts 319°
2026-05-09 11:30 28.51127 -112.29220 16994 ft 384 kts 319°
2026-05-09 11:31 28.53126 -112.31229 16992 ft 384 kts 319°
2026-05-09 11:31 28.55131 -112.33245 16993 ft 384 kts 319°
2026-05-09 11:31 28.57130 -112.35257 16992 ft 384 kts 319°
2026-05-09 11:31 28.59129 -112.37268 16993 ft 384 kts 319°
2026-05-09 11:32 28.61131 -112.39286 16991 ft 384 kts 319°
2026-05-09 11:32 28.63129 -112.41297 16993 ft 384 kts 319°
2026-05-09 11:32 28.65128 -112.43316 16991 ft 384 kts 319°
2026-05-09 11:32 28.67126 -112.45327 16992 ft 384 kts 319°
2026-05-09 11:33 28.69121 -112.47345 16992 ft 384 kts 319°
2026-05-09 11:33 28.71117 -112.49357 16995 ft 383 kts 319°
2026-05-09 11:33 28.75109 -112.53393 16995 ft 383 kts 319°
2026-05-09 11:34 28.77104 -112.55411 16994 ft 383 kts 319°
2026-05-09 11:34 28.79096 -112.57429 16992 ft 383 kts 319°
2026-05-09 11:34 28.81090 -112.59445 16992 ft 383 kts 319°
2026-05-09 11:34 28.83080 -112.61464 16993 ft 383 kts 319°
2026-05-09 11:35 28.85073 -112.63481 16996 ft 383 kts 319°
2026-05-09 11:35 28.87064 -112.65504 16994 ft 383 kts 319°
2026-05-09 11:35 28.89058 -112.67523 16992 ft 383 kts 319°
2026-05-09 11:35 28.91046 -112.69546 16991 ft 383 kts 319°
2026-05-09 11:36 28.93037 -112.71564 16992 ft 383 kts 319°
2026-05-09 11:36 28.95024 -112.73586 16993 ft 383 kts 319°
2026-05-09 11:36 28.97012 -112.75607 16992 ft 383 kts 319°
2026-05-09 11:36 28.99000 -112.77629 16994 ft 383 kts 319°
2026-05-09 11:37 29.00984 -112.79650 16990 ft 383 kts 319°
2026-05-09 11:37 29.02971 -112.81672 16993 ft 382 kts 319°
2026-05-09 11:37 29.04931 -112.83673 16988 ft 382 kts 319°
2026-05-09 11:37 29.06916 -112.85693 16993 ft 382 kts 319°
2026-05-09 11:38 29.08898 -112.87719 16991 ft 382 kts 319°
2026-05-09 11:38 29.10883 -112.89741 16989 ft 382 kts 319°
2026-05-09 11:38 29.12862 -112.91767 16993 ft 382 kts 319°
2026-05-09 11:38 29.14845 -112.93789 16992 ft 382 kts 319°
2026-05-09 11:39 29.16825 -112.95815 16988 ft 382 kts 319°
2026-05-09 11:39 29.18803 -112.97838 16993 ft 382 kts 319°
2026-05-09 11:39 29.20781 -112.99862 16990 ft 381 kts 319°
2026-05-09 11:40 29.24735 -113.03912 16992 ft 381 kts 319°
2026-05-09 11:40 29.26708 -113.05937 16993 ft 381 kts 319°
2026-05-09 11:40 29.28686 -113.07962 16994 ft 381 kts 319°
2026-05-09 11:40 29.30655 -113.09987 16993 ft 381 kts 319°
2026-05-09 11:41 29.32631 -113.12012 16992 ft 381 kts 319°
2026-05-09 11:41 29.34599 -113.14037 16994 ft 381 kts 319°
2026-05-09 11:41 29.36571 -113.16063 16993 ft 380 kts 318°
2026-05-09 11:41 29.38542 -113.18090 16995 ft 380 kts 319°
2026-05-09 11:42 29.40508 -113.20114 16992 ft 380 kts 318°
2026-05-09 11:42 29.42480 -113.22142 16994 ft 380 kts 319°
2026-05-09 11:42 29.44445 -113.24169 16995 ft 380 kts 318°
2026-05-09 11:42 29.46414 -113.26196 16995 ft 380 kts 319°
2026-05-09 11:43 29.48381 -113.28228 16995 ft 380 kts 318°
2026-05-09 11:43 29.50348 -113.30253 16996 ft 380 kts 318°
2026-05-09 11:43 29.52313 -113.32286 16992 ft 380 kts 318°
2026-05-09 11:43 29.54279 -113.34313 16991 ft 380 kts 318°
2026-05-09 11:44 29.56215 -113.36317 16993 ft 380 kts 319°
2026-05-09 11:44 29.58184 -113.38350 16992 ft 380 kts 318°
2026-05-09 11:44 29.60148 -113.40384 16991 ft 380 kts 318°
2026-05-09 11:44 29.62110 -113.42416 16988 ft 380 kts 318°
2026-05-09 11:45 29.64074 -113.44449 16988 ft 380 kts 319°
2026-05-09 11:45 29.66035 -113.46483 16988 ft 380 kts 318°
2026-05-09 11:45 29.67998 -113.48515 16989 ft 380 kts 318°
2026-05-09 11:45 29.69959 -113.50554 16990 ft 380 kts 318°
2026-05-09 11:46 29.71923 -113.52589 16989 ft 380 kts 318°
2026-05-09 11:46 29.73879 -113.54625 16986 ft 380 kts 318°
2026-05-09 11:46 29.75843 -113.56661 16986 ft 380 kts 318°
2026-05-09 11:46 29.77802 -113.58702 16986 ft 380 kts 318°
2026-05-09 11:47 29.79758 -113.60744 16979 ft 380 kts 317°
2026-05-09 11:47 29.81533 -113.62992 16982 ft 380 kts 311°
2026-05-09 11:47 29.83304 -113.65250 16982 ft 380 kts 313°
2026-05-09 11:47 29.85084 -113.67496 16981 ft 380 kts 313°
2026-05-09 11:48 29.86853 -113.69751 16983 ft 380 kts 312°
2026-05-09 11:48 29.88611 -113.72021 16981 ft 380 kts 312°
2026-05-09 11:48 29.90379 -113.74285 16981 ft 380 kts 313°
2026-05-09 11:48 29.92144 -113.76546 16981 ft 380 kts 313°
2026-05-09 11:49 29.93912 -113.78808 16977 ft 380 kts 312°
2026-05-09 11:49 29.95676 -113.81075 16975 ft 380 kts 313°
2026-05-09 11:49 29.97442 -113.83343 16979 ft 380 kts 312°
2026-05-09 11:49 29.99205 -113.85607 16979 ft 380 kts 313°
2026-05-09 11:50 30.00970 -113.87877 16977 ft 380 kts 312°
2026-05-09 11:50 30.02735 -113.90143 16976 ft 380 kts 313°
2026-05-09 11:50 30.04496 -113.92414 16976 ft 380 kts 312°
2026-05-09 11:50 30.06238 -113.94653 16976 ft 380 kts 312°
2026-05-09 11:51 30.07999 -113.96926 16973 ft 380 kts 313°
2026-05-09 11:51 30.09762 -113.99194 16977 ft 380 kts 312°
2026-05-09 11:51 30.11522 -114.01469 16977 ft 380 kts 313°
2026-05-09 11:51 30.13286 -114.03741 16974 ft 380 kts 312°
2026-05-09 11:52 30.15047 -114.06018 16975 ft 380 kts 313°
2026-05-09 11:52 30.16808 -114.08293 16973 ft 380 kts 312°
2026-05-09 11:52 30.18569 -114.10568 16974 ft 380 kts 313°
2026-05-09 11:52 30.20330 -114.12849 16975 ft 380 kts 312°
2026-05-09 11:53 30.22093 -114.15127 16975 ft 380 kts 313°
2026-05-09 11:53 30.23851 -114.17408 16974 ft 380 kts 312°
2026-05-09 11:53 30.25610 -114.19683 16976 ft 380 kts 312°
2026-05-09 11:53 30.27369 -114.21969 16974 ft 380 kts 312°
2026-05-09 11:54 30.29130 -114.24248 16975 ft 380 kts 312°
2026-05-09 11:54 30.30887 -114.26533 16976 ft 380 kts 312°
2026-05-09 11:54 30.32645 -114.28813 16973 ft 380 kts 312°
2026-05-09 11:54 30.34402 -114.31099 16973 ft 380 kts 313°
2026-05-09 11:55 30.36159 -114.33383 16972 ft 380 kts 312°
2026-05-09 11:56 30.44936 -114.44814 16975 ft 380 kts 312°
2026-05-09 11:56 30.46689 -114.47107 16976 ft 380 kts 312°
2026-05-09 11:56 30.48443 -114.49392 16977 ft 380 kts 312°
2026-05-09 11:57 30.50194 -114.51684 16979 ft 380 kts 312°
2026-05-09 11:57 30.51948 -114.53973 16981 ft 380 kts 312°
2026-05-09 11:57 30.53698 -114.56265 16978 ft 380 kts 312°
2026-05-09 11:57 30.55451 -114.58558 16981 ft 380 kts 312°
2026-05-09 11:58 30.57202 -114.60851 16984 ft 380 kts 312°
2026-05-09 11:58 30.58952 -114.63146 16981 ft 380 kts 312°
2026-05-09 11:58 30.60704 -114.65439 16987 ft 380 kts 312°
2026-05-09 11:58 30.62451 -114.67736 16986 ft 380 kts 312°
2026-05-09 11:59 30.64202 -114.70030 16992 ft 379 kts 312°
2026-05-09 11:59 30.65948 -114.72327 16990 ft 380 kts 312°
2026-05-09 11:59 30.67698 -114.74624 16992 ft 380 kts 312°
2026-05-09 11:59 30.69445 -114.76924 16997 ft 380 kts 312°
2026-05-09 12:00 30.71169 -114.79190 17000 ft 380 kts 312°
2026-05-09 12:00 30.72917 -114.81492 17002 ft 380 kts 312°
2026-05-09 12:00 30.74686 -114.83825 17003 ft 380 kts 312°
2026-05-09 12:00 30.76435 -114.86126 17006 ft 380 kts 312°
2026-05-09 12:01 30.78155 -114.88399 17008 ft 380 kts 312°
2026-05-09 12:01 30.79903 -114.90702 17013 ft 380 kts 312°
2026-05-09 12:01 30.81647 -114.93008 17014 ft 380 kts 312°
2026-05-09 12:01 30.83392 -114.95311 17016 ft 380 kts 312°
2026-05-09 12:02 30.85134 -114.97618 17020 ft 379 kts 312°
2026-05-09 12:02 30.86879 -114.99923 17021 ft 379 kts 312°
2026-05-09 12:02 30.88619 -115.02227 17030 ft 379 kts 312°
2026-05-09 12:02 30.89796 -115.03783 17029 ft 379 kts 312°
2026-05-09 12:03 30.91534 -115.06091 17037 ft 379 kts 312°
2026-05-09 12:03 30.93273 -115.08393 17042 ft 379 kts 312°
2026-05-09 12:03 30.95010 -115.10698 17053 ft 379 kts 312°
2026-05-09 12:03 30.96747 -115.13004 17051 ft 379 kts 312°
2026-05-09 12:04 30.98462 -115.15280 17058 ft 378 kts 312°
2026-05-09 12:04 31.00196 -115.17588 17059 ft 378 kts 312°
2026-05-09 12:04 31.01930 -115.19892 17064 ft 378 kts 312°
2026-05-09 12:04 31.03664 -115.22201 17063 ft 378 kts 312°
2026-05-09 12:05 31.05398 -115.24508 17076 ft 378 kts 312°
2026-05-09 12:05 31.07130 -115.26815 17081 ft 378 kts 312°
2026-05-09 12:05 31.08862 -115.29124 17083 ft 378 kts 312°
2026-05-09 12:05 31.10594 -115.31434 17085 ft 378 kts 312°
2026-05-09 12:06 31.12326 -115.33746 17087 ft 378 kts 312°
2026-05-09 12:06 31.14056 -115.36056 17091 ft 378 kts 312°
2026-05-09 12:06 31.15787 -115.38369 17093 ft 378 kts 312°
2026-05-09 12:06 31.17515 -115.40681 17095 ft 378 kts 312°
2026-05-09 12:07 31.19244 -115.42992 17099 ft 378 kts 312°
2026-05-09 12:07 31.20974 -115.45308 17105 ft 378 kts 312°
2026-05-09 12:07 31.22703 -115.47624 17102 ft 378 kts 312°
2026-05-09 12:07 31.24430 -115.49940 17108 ft 378 kts 312°
2026-05-09 12:08 31.26159 -115.52256 17113 ft 378 kts 312°
2026-05-09 12:08 31.27890 -115.54580 17115 ft 379 kts 312°
2026-05-09 12:08 31.29619 -115.56902 17117 ft 379 kts 311°
2026-05-09 12:08 31.31348 -115.59225 17120 ft 379 kts 312°
2026-05-09 12:09 31.33075 -115.61546 17119 ft 378 kts 312°
2026-05-09 12:09 31.34803 -115.63869 17123 ft 378 kts 312°
2026-05-09 12:09 31.36531 -115.66195 17125 ft 378 kts 312°
2026-05-09 12:10 31.41703 -115.73165 17125 ft 378 kts 311°
2026-05-09 12:10 31.43424 -115.75487 17130 ft 377 kts 312°
2026-05-09 12:10 31.45142 -115.77809 17132 ft 378 kts 311°
2026-05-09 12:11 31.46864 -115.80132 17129 ft 378 kts 311°
2026-05-09 12:11 31.48585 -115.82459 17132 ft 378 kts 311°
2026-05-09 12:11 31.50304 -115.84784 17135 ft 378 kts 312°
2026-05-09 12:11 31.52024 -115.87113 17133 ft 377 kts 311°
2026-05-09 12:12 31.53741 -115.89439 17132 ft 377 kts 311°
2026-05-09 12:12 31.55455 -115.91761 17134 ft 377 kts 312°
2026-05-09 12:12 31.57170 -115.94083 17135 ft 377 kts 311°
2026-05-09 12:12 31.58885 -115.96412 17135 ft 377 kts 311°
2026-05-09 12:13 31.60598 -115.98737 17135 ft 377 kts 311°
2026-05-09 12:13 31.62312 -116.01065 17138 ft 377 kts 311°
2026-05-09 12:13 31.64002 -116.03363 17139 ft 377 kts 311°
2026-05-09 12:13 31.65713 -116.05691 17145 ft 377 kts 311°
2026-05-09 12:14 31.67427 -116.08021 17144 ft 377 kts 311°
2026-05-09 12:14 31.69136 -116.10349 17143 ft 377 kts 311°
2026-05-09 12:14 31.70850 -116.12683 17143 ft 377 kts 311°
2026-05-09 12:14 31.72559 -116.15015 17146 ft 377 kts 311°
2026-05-09 12:15 31.74277 -116.17343 17145 ft 377 kts 313°
2026-05-09 12:15 31.76220 -116.19385 17147 ft 375 kts 321°
2026-05-09 12:15 31.78234 -116.21345 17147 ft 375 kts 321°
2026-05-09 12:15 31.80234 -116.23319 17146 ft 376 kts 320°
2026-05-09 12:16 31.82229 -116.25301 17154 ft 376 kts 321°
2026-05-09 12:16 31.84230 -116.27278 17149 ft 376 kts 320°
2026-05-09 12:16 31.86234 -116.29256 17153 ft 376 kts 320°
2026-05-09 12:16 31.88232 -116.31233 17153 ft 376 kts 320°
2026-05-09 12:17 31.90232 -116.33214 17154 ft 376 kts 320°
2026-05-09 12:17 31.92231 -116.35195 17148 ft 376 kts 320°
2026-05-09 12:17 31.94229 -116.37174 17154 ft 375 kts 320°
2026-05-09 12:17 31.96227 -116.39156 17150 ft 375 kts 320°
2026-05-09 12:18 31.98223 -116.41137 17152 ft 375 kts 320°
2026-05-09 12:18 32.00217 -116.43117 17149 ft 375 kts 320°
2026-05-09 12:18 32.02211 -116.45099 17151 ft 375 kts 320°
2026-05-09 12:18 32.04207 -116.47081 17151 ft 375 kts 320°
2026-05-09 12:19 32.06202 -116.49065 17149 ft 375 kts 320°
2026-05-09 12:19 32.08196 -116.51053 17152 ft 376 kts 320°
2026-05-09 12:19 32.10193 -116.53037 17153 ft 376 kts 320°
2026-05-09 12:19 32.12188 -116.55029 17152 ft 376 kts 320°
2026-05-09 12:20 32.14187 -116.57018 17150 ft 376 kts 320°
2026-05-09 12:20 32.16221 -116.58952 17144 ft 375 kts 323°
2026-05-09 12:20 32.18264 -116.60872 17147 ft 375 kts 320°
2026-05-09 12:20 32.20252 -116.62866 17149 ft 375 kts 320°
2026-05-09 12:21 32.22274 -116.64815 17148 ft 376 kts 321°
2026-05-09 12:21 32.24324 -116.66737 17145 ft 376 kts 321°
2026-05-09 12:21 32.26361 -116.68673 17152 ft 376 kts 321°
2026-05-09 12:21 32.28389 -116.70625 17149 ft 376 kts 321°
2026-05-09 12:22 32.30417 -116.72573 17150 ft 376 kts 321°
2026-05-09 12:22 32.32452 -116.74519 17156 ft 376 kts 321°
2026-05-09 12:22 32.34488 -116.76464 17157 ft 376 kts 321°
2026-05-09 12:22 32.36522 -116.78419 17159 ft 377 kts 321°
2026-05-09 12:23 32.38558 -116.80370 17160 ft 377 kts 321°
2026-05-09 12:23 32.40590 -116.82325 17167 ft 377 kts 321°
2026-05-09 12:23 32.42624 -116.84275 17165 ft 377 kts 321°
2026-05-09 12:23 32.44631 -116.86206 17169 ft 377 kts 321°
2026-05-09 12:24 32.46692 -116.88186 17170 ft 377 kts 321°
2026-05-09 12:24 32.48699 -116.90119 17176 ft 377 kts 321°
2026-05-09 12:24 32.50733 -116.92078 17175 ft 377 kts 321°
2026-05-09 12:24 32.52773 -116.94040 17175 ft 379 kts 321°
2026-05-09 12:25 32.54778 -116.96074 17176 ft 380 kts 316°
2026-05-09 12:25 32.56712 -116.98221 17134 ft 382 kts 318°
2026-05-09 12:25 32.58707 -117.00313 17133 ft 383 kts 318°
2026-05-09 12:25 32.60687 -117.02434 17142 ft 384 kts 317°
2026-05-09 12:26 32.62653 -117.04588 17141 ft 385 kts 317°
2026-05-09 12:26 32.64624 -117.06737 17145 ft 386 kts 317°
2026-05-09 12:26 32.66607 -117.08888 17149 ft 386 kts 317°
2026-05-09 12:26 32.68592 -117.11032 17163 ft 386 kts 317°
2026-05-09 12:27 32.70574 -117.13193 17162 ft 387 kts 317°
2026-05-09 12:27 32.72558 -117.15349 17162 ft 387 kts 317°
2026-05-09 12:27 32.74541 -117.17511 17153 ft 387 kts 317°
2026-05-09 12:27 32.76531 -117.19674 17168 ft 387 kts 317°
2026-05-09 12:28 32.78516 -117.21839 17165 ft 388 kts 317°
2026-05-09 12:28 32.80502 -117.24004 17166 ft 388 kts 317°
2026-05-09 12:28 32.82489 -117.26171 17154 ft 388 kts 317°
2026-05-09 12:28 32.84475 -117.28341 17150 ft 388 kts 317°
2026-05-09 12:29 32.86461 -117.30509 17144 ft 388 kts 317°
2026-05-09 12:29 32.88445 -117.32680 17149 ft 388 kts 317°
2026-05-09 12:29 32.90432 -117.34850 17151 ft 388 kts 317°
2026-05-09 12:29 32.92415 -117.37025 17148 ft 388 kts 317°
2026-05-09 12:30 32.94402 -117.39196 17150 ft 388 kts 317°
2026-05-09 12:30 32.96444 -117.41285 17140 ft 387 kts 320°
2026-05-09 12:30 33.00468 -117.45548 17146 ft 387 kts 317°
2026-05-09 12:31 33.02496 -117.47656 17141 ft 387 kts 319°
2026-05-09 12:31 33.06572 -117.51846 17133 ft 387 kts 318°
2026-05-09 12:31 33.08601 -117.53962 17143 ft 387 kts 318°
2026-05-09 12:32 33.10626 -117.56077 17140 ft 387 kts 318°
2026-05-09 12:32 33.12658 -117.58183 17141 ft 387 kts 318°
2026-05-09 12:32 33.14685 -117.60292 17146 ft 387 kts 318°
2026-05-09 12:32 33.16688 -117.62378 17142 ft 387 kts 318°
2026-05-09 12:33 33.18714 -117.64491 17145 ft 387 kts 318°
2026-05-09 12:33 33.20742 -117.66607 17141 ft 387 kts 318°
2026-05-09 12:33 33.22768 -117.68718 17145 ft 387 kts 318°
2026-05-09 12:33 33.24792 -117.70835 17140 ft 387 kts 318°
2026-05-09 12:34 33.26806 -117.72935 17142 ft 376 kts 318°
2026-05-09 12:34 33.28719 -117.74938 16973 ft 359 kts 318°
2026-05-09 12:34 33.30583 -117.76884 16582 ft 353 kts 318°
2026-05-09 12:34 33.32413 -117.78805 16138 ft 346 kts 318°
2026-05-09 12:35 33.34201 -117.80674 15697 ft 337 kts 318°
2026-05-09 12:35 33.35927 -117.82485 15266 ft 324 kts 318°
2026-05-09 12:35 33.37591 -117.84227 14924 ft 310 kts 318°
2026-05-09 12:35 33.39172 -117.85888 14597 ft 299 kts 318°
2026-05-09 12:36 33.40724 -117.87517 14152 ft 295 kts 318°
2026-05-09 12:36 33.42245 -117.89112 13636 ft 288 kts 318°
2026-05-09 12:36 33.43737 -117.90682 13023 ft 284 kts 318°
2026-05-09 12:36 33.45218 -117.92234 12415 ft 281 kts 318°
2026-05-09 12:37 33.46678 -117.93775 11830 ft 279 kts 318°
2026-05-09 12:37 33.48129 -117.95297 11257 ft 276 kts 317°
2026-05-09 12:37 33.49569 -117.96814 10684 ft 275 kts 318°
2026-05-09 12:37 33.51000 -117.98320 10130 ft 273 kts 317°
2026-05-09 12:38 33.52425 -117.99820 9548 ft 272 kts 318°
2026-05-09 12:38 33.53838 -118.01312 8953 ft 270 kts 317°
2026-05-09 12:38 33.55247 -118.02792 8363 ft 269 kts 317°
2026-05-09 12:38 33.56644 -118.04272 7794 ft 267 kts 317°
2026-05-09 12:39 33.58033 -118.05732 7223 ft 264 kts 317°
2026-05-09 12:39 33.59403 -118.07183 6671 ft 261 kts 317°
2026-05-09 12:39 33.60759 -118.08611 6084 ft 258 kts 317°
2026-05-09 12:39 33.62101 -118.10031 5495 ft 256 kts 318°
2026-05-09 12:40 33.63434 -118.11440 4922 ft 255 kts 318°
2026-05-09 12:40 33.64759 -118.12839 4339 ft 253 kts 319°
2026-05-09 12:40 33.66073 -118.14233 3753 ft 252 kts 319°
2026-05-09 12:40 33.67390 -118.15622 3201 ft 251 kts 319°
2026-05-09 12:41 33.68694 -118.17009 2716 ft 248 kts 319°
2026-05-09 12:41 33.69939 -118.18324 2646 ft 229 kts 318°
2026-05-09 12:41 33.70918 -118.19706 2635 ft 213 kts 308°
2026-05-09 12:41 33.71817 -118.21048 2634 ft 200 kts 310°
2026-05-09 12:42 33.72661 -118.22304 2631 ft 187 kts 310°
2026-05-09 12:42 33.73453 -118.23488 2634 ft 177 kts 309°
2026-05-09 12:42 33.74200 -118.24610 2634 ft 167 kts 310°
2026-05-09 12:42 33.74895 -118.25660 2631 ft 155 kts 309°
2026-05-09 12:43 33.75531 -118.26613 2630 ft 133 kts 309°
2026-05-09 12:43 33.76042 -118.27386 2612 ft 107 kts 311°
2026-05-09 12:43 33.76476 -118.28046 2582 ft 100 kts 310°
2026-05-09 12:43 33.76913 -118.28688 2588 ft 97 kts 309°
2026-05-09 12:44 33.77330 -118.29366 2324 ft 102 kts 309°
2026-05-09 12:44 33.77784 -118.30039 1993 ft 104 kts 313°
2026-05-09 12:44 33.78254 -118.30707 1672 ft 107 kts 310°
2026-05-09 12:44 33.78713 -118.31420 1313 ft 108 kts 309°
2026-05-09 12:45 33.79197 -118.32136 888 ft 112 kts 310°
2026-05-09 12:45 33.79686 -118.32879 434 ft 114 kts 308°
2026-05-09 12:45 33.80178 -118.33623 100 ft 105 kts 308°
2026-05-09 12:45 33.80567 -118.34205 86 ft 60 kts 308°
2026-05-09 12:46 33.80732 -118.34454 84 ft 31 kts 308°
2026-05-09 12:46 33.80761 -118.34600 85 ft 18 kts 216°
2026-05-09 12:46 33.80650 -118.34673 83 ft 19 kts 207°
2026-05-09 12:46 33.80577 -118.34732 83 ft 9 kts 262°
2026-05-09 12:47 33.80624 -118.34753 83 ft 9 kts
2026-05-09 12:47 33.80690 -118.34753 86 ft 10 kts
2026-05-09 12:47 33.80769 -118.34753 83 ft 12 kts
2026-05-09 12:47 33.80822 -118.34743 84 ft 0 kts 315°
2026-05-09 12:48 33.80824 -118.34748 84 ft 3 kts 292°
2026-05-09 12:48 33.80814 -118.34753 86 ft 6 kts 180°
2026-05-09 12:48 33.80768 -118.34753 83 ft 0 kts 180°